User: anonymous   Login
Location: Albany
(35.0000°S, 118.0000°E)
Time: 14:11:32
(UTC-04:00)
Language:

Cosmos 1933 - Orbit

View from above orbital plane
View from above orbital plane
View from above satellite
View from above satellite

Ground track
Ground track

The orbit data is extracted from the following two-line orbital elements,

1 18958U 88020A   15148.01349048  .00000966  00000-0  71279-4 0  9998
2 18958 082.5295 108.1852 0010836 323.6289 036.4199 15.02145041478712
Epoch (UTC): 28 May 2015 00:19:25
Eccentricity: 0.0010836
inclination: 82.5295°
perigee height: 553 km
apogee height: 568 km
right ascension of ascending node: 108.1852°
argument of perigee: 323.6289°
revolutions per day: 15.02145041
mean anomaly at epoch: 36.4199°
orbit number at epoch: 47871

The dashed part of the orbit path shows where the satellite is in the earth's shadow,  

DLR